N1CU KMEM-KRBD

Flight info

Callsign N1CU
Flight time N/A
Altitude 38000
Route CHLDR5 ANSWA DODJE REEKO3
Aircraft CL60/M-SBDE1E2E3FGHIJ1J4J5J7M3RWXYZ/LB1V1D1

Departure

Time 2026-05-04 01:11
Airport Memphis International Airport (KMEM)

Arrival

Time N/A
Airport Dallas Executive Airport (KRBD)
Time Latitude Longitude Altitude Speed Heading
2026-05-04 00:47 35.05449 -89.98141 270 ft 0 kts 270°
2026-05-04 01:06 35.05449 -89.98152 270 ft 3 kts 270°
2026-05-04 01:06 35.05458 -89.98199 270 ft 8 kts 293°
2026-05-04 01:06 35.05487 -89.98287 268 ft 13 kts 291°
2026-05-04 01:07 35.05540 -89.98371 266 ft 13 kts 325°
2026-05-04 01:07 35.05571 -89.98434 265 ft 7 kts 275°
2026-05-04 01:07 35.05571 -89.98438 265 ft 0 kts 272°
2026-05-04 01:07 35.05571 -89.98453 265 ft 6 kts 270°
2026-05-04 01:08 35.05547 -89.98507 265 ft 9 kts 191°
2026-05-04 01:08 35.05471 -89.98508 267 ft 11 kts 181°
2026-05-04 01:08 35.05388 -89.98511 270 ft 12 kts 180°
2026-05-04 01:08 35.05300 -89.98510 272 ft 12 kts 182°
2026-05-04 01:09 35.05206 -89.98514 275 ft 14 kts 181°
2026-05-04 01:09 35.05105 -89.98528 277 ft 15 kts 200°
2026-05-04 01:09 35.05004 -89.98585 280 ft 11 kts 205°
2026-05-04 01:09 35.04950 -89.98621 280 ft 2 kts 221°
2026-05-04 01:10 35.04944 -89.98629 280 ft 0 kts 231°
2026-05-04 01:10 35.04937 -89.98645 280 ft 5 kts 253°
2026-05-04 01:10 35.04935 -89.98717 280 ft 9 kts 263°
2026-05-04 01:10 35.04890 -89.98743 280 ft 12 kts 176°
2026-05-04 01:11 35.04388 -89.98733 287 ft 129 kts 179°
2026-05-04 01:11 35.03251 -89.98707 711 ft 185 kts 180°
2026-05-04 01:11 35.01928 -89.98644 1830 ft 199 kts 179°
2026-05-04 01:11 35.00568 -89.98518 2977 ft 209 kts 179°
2026-05-04 01:12 34.99093 -89.98714 4008 ft 233 kts 201°
2026-05-04 01:12 34.97473 -89.99482 4917 ft 263 kts 205°
2026-05-04 01:12 34.95850 -90.00512 6334 ft 270 kts 221°
2026-05-04 01:12 34.94653 -90.02183 7778 ft 272 kts 244°
2026-05-04 01:13 34.94152 -90.04350 9112 ft 278 kts 269°
2026-05-04 01:13 34.94139 -90.06709 10417 ft 288 kts 272°
2026-05-04 01:13 34.94144 -90.09131 11887 ft 291 kts 272°
2026-05-04 01:13 34.94096 -90.11553 13342 ft 294 kts 270°
2026-05-04 01:14 34.93942 -90.13989 14693 ft 297 kts 269°
2026-05-04 01:14 34.93774 -90.16512 15983 ft 301 kts 269°
2026-05-04 01:14 34.93606 -90.19037 17220 ft 305 kts 269°
2026-05-04 01:14 34.93436 -90.21596 18407 ft 309 kts 269°
2026-05-04 01:15 34.93276 -90.24192 19528 ft 313 kts 270°
2026-05-04 01:15 34.93129 -90.26823 20547 ft 318 kts 270°
2026-05-04 01:15 34.92977 -90.29545 21583 ft 322 kts 270°
2026-05-04 01:15 34.92825 -90.32252 22583 ft 326 kts 270°
2026-05-04 01:16 34.92669 -90.35009 23528 ft 330 kts 270°
2026-05-04 01:16 34.92508 -90.37869 24121 ft 345 kts 270°
2026-05-04 01:16 34.92341 -90.40841 24701 ft 358 kts 270°
2026-05-04 01:16 34.92165 -90.43906 25454 ft 365 kts 270°
2026-05-04 01:17 34.91985 -90.47006 26296 ft 368 kts 270°
2026-05-04 01:17 34.91804 -90.50095 27110 ft 370 kts 270°
2026-05-04 01:17 34.91621 -90.53233 27863 ft 372 kts 270°
2026-05-04 01:17 34.91437 -90.56373 28568 ft 375 kts 270°
2026-05-04 01:18 34.91249 -90.59553 29250 ft 377 kts 270°
2026-05-04 01:18 34.91061 -90.62738 29855 ft 381 kts 270°
2026-05-04 01:18 34.90868 -90.65972 30479 ft 384 kts 270°
2026-05-04 01:18 34.90672 -90.69252 31082 ft 386 kts 270°
2026-05-04 01:19 34.90458 -90.72533 31637 ft 391 kts 268°
2026-05-04 01:19 34.90022 -90.75829 32163 ft 396 kts 264°
2026-05-04 01:19 34.89519 -90.79117 32645 ft 398 kts 264°
2026-05-04 01:19 34.89012 -90.82441 33086 ft 401 kts 264°
2026-05-04 01:20 34.88500 -90.85796 33484 ft 405 kts 264°
2026-05-04 01:20 34.87984 -90.89169 33865 ft 407 kts 264°
2026-05-04 01:20 34.87461 -90.92573 34382 ft 406 kts 264°
2026-05-04 01:20 34.86946 -90.95918 34896 ft 403 kts 264°
2026-05-04 01:21 34.86428 -90.99278 35461 ft 399 kts 264°
2026-05-04 01:21 34.85921 -91.02563 35970 ft 396 kts 265°
2026-05-04 01:21 34.85410 -91.05866 36503 ft 393 kts 265°
2026-05-04 01:21 34.84908 -91.09106 37092 ft 391 kts 265°
2026-05-04 01:22 34.84403 -91.12364 37632 ft 389 kts 265°
2026-05-04 01:22 34.83906 -91.15568 37999 ft 390 kts 265°
2026-05-04 01:22 34.83398 -91.18848 38010 ft 393 kts 265°
2026-05-04 01:23 34.82375 -91.25433 38010 ft 403 kts 265°
2026-05-04 01:23 34.81313 -91.32239 38004 ft 415 kts 264°
2026-05-04 01:24 34.80222 -91.39193 38008 ft 424 kts 264°
2026-05-04 01:24 34.79100 -91.46308 38007 ft 429 kts 264°
2026-05-04 01:25 34.77973 -91.53415 38003 ft 428 kts 264°
2026-05-04 01:25 34.76844 -91.60506 38017 ft 427 kts 264°
2026-05-04 01:26 34.75718 -91.67557 38006 ft 426 kts 264°
2026-05-04 01:26 34.74533 -91.74659 38010 ft 428 kts 261°
2026-05-04 01:27 34.72246 -91.81466 38006 ft 440 kts 247°
2026-05-04 01:27 34.69181 -91.87877 38003 ft 441 kts 246°
2026-05-04 01:28 34.66084 -91.94338 38011 ft 441 kts 247°
2026-05-04 01:28 34.62981 -92.00800 38014 ft 441 kts 246°
2026-05-04 01:29 34.59890 -92.07224 38015 ft 440 kts 246°
2026-05-04 01:29 34.56799 -92.13638 38015 ft 440 kts 246°
2026-05-04 01:30 34.53695 -92.20068 38028 ft 440 kts 246°
2026-05-04 01:30 34.50608 -92.26447 38022 ft 439 kts 246°
2026-05-04 01:31 34.47496 -92.32869 38022 ft 440 kts 247°
2026-05-04 01:31 34.45959 -92.36037 38211 ft 440 kts 247°
2026-05-04 01:31 34.44402 -92.39244 38143 ft 440 kts 247°
2026-05-04 01:31 34.42854 -92.42426 38033 ft 439 kts 247°
2026-05-04 01:32 34.41296 -92.45627 38023 ft 437 kts 247°
2026-05-04 01:32 34.38204 -92.51972 38019 ft 437 kts 247°
2026-05-04 01:33 34.35115 -92.58301 38030 ft 437 kts 247°
2026-05-04 01:33 34.32023 -92.64624 38029 ft 437 kts 247°
2026-05-04 01:34 34.28900 -92.71001 38022 ft 437 kts 246°
2026-05-04 01:34 34.25784 -92.77349 38032 ft 437 kts 247°
2026-05-04 01:35 34.22683 -92.83656 38027 ft 437 kts 247°
2026-05-04 01:35 34.19570 -92.89973 38022 ft 436 kts 247°